Regional Weather Roundup
Issued by NWS Charleston, WV

Home | Current Version | Previous Version | Graphics & Text | Print | Product List | Glossary On
Versions: 1 2 3 4 5 6 7 8 9 10 11 12 13 14 15 16 17 18 19 20 21 22 23 24 25 26 27 28 29 30 31 32 33 34 35 36 37 38 39 40 41 42 43 44 45 46 47 48 49 50
000
ASUS41 KRLX 240910
RWRRLX
West Virginia Regional Weather Roundup
National Weather Service Charleston WV
500 AM EDT WED AUG 24 2016

Note: "fair" indicates few or no clouds below 12,000 feet with no
significant weather and/or obstructions to visibility.

WVZ003-241000-
Northern Panhandle of West Virginia

CITY           SKY/WX    TMP DP  RH WIND       PRES   REMARKS
WHEELING       CLEAR     62  58  86 E3        30.24S
$$

WVZ009-241000-
Northwest West Virginia

CITY           SKY/WX    TMP DP  RH WIND       PRES   REMARKS
PARKERSBURG    MOCLDY    59  57  93 CALM      30.25S
$$

WVZ006-241000-
Western West Virginia

CITY           SKY/WX    TMP DP  RH WIND       PRES   REMARKS
HUNTINGTON     CLEAR     63  61  93 E3        30.21S
$$

WVZ015-241000-
West Central West Virginia

CITY           SKY/WX    TMP DP  RH WIND       PRES   REMARKS
CHARLESTON     MOCLDY    62  61  96 CALM      30.23S FOG
$$

WVZ022-031-241000-
North Central West Virginia

CITY           SKY/WX    TMP DP  RH WIND       PRES   REMARKS
CLARKSBURG     PTCLDY    60  59  96 CALM      30.25S
MORGANTOWN     CLEAR     63  59  87 CALM      30.26S
$$

WVZ025-035-042-045-241000-
Southern West Virginia

CITY           SKY/WX    TMP DP  RH WIND       PRES   REMARKS
BECKLEY        CLEAR     64  58  80 SE9       30.32S
LOGAN          CLOUDY    66  64  94 VRB3      30.25S
BLUEFIELD      CLEAR     66  57  72 S8        30.34S
LEWISBURG      FOG       57  57  99 NE3       30.34R VSB 1
$$

WVZ047-241000-
Northern Mountains of West Virginia

CITY           SKY/WX    TMP DP  RH WIND       PRES   REMARKS
ELKINS         FOG       56  54  93 CALM      30.32S VSB 1/4
$$

WVZ052-241000-
Eastern Panhandle of West Virginia

CITY           SKY/WX    TMP DP  RH WIND       PRES   REMARKS
MARTINSBURG    CLEAR     61  59  93 CALM      30.26S
PETERSBURG     CLEAR     58  57  98 CALM      30.29R FOG
$$




USA.gov is the U.S. government's official web portal to all federal, state and local government web resources and services.